URAAT UKKK-UKKK

Flight info

Callsign URAAT
Flight time 1h 15m
Altitude 3500
Route 503720N0302642E 505318N0302618E 510426N0302331E 511616N0301309E 512300N0300551E 511953N0295438E 505619N0295350E DCT 503260N0301324E
Aircraft PA24/L-SDGRY/S

Departure

Time 2026-04-26 17:48
Airport Ihor Sikorsky Kyiv International Airport (Zhuliany) (UKKK)

Arrival

Time 2026-04-26 19:03
Airport Ihor Sikorsky Kyiv International Airport (Zhuliany) (UKKK)
Time Latitude Longitude Altitude Speed Heading
2026-04-26 17:27 50.40521 30.43870 568 ft 0 kts 65°
2026-04-26 17:38 50.40521 30.43871 582 ft 2 kts 65°
2026-04-26 17:38 50.40527 30.43891 570 ft 6 kts 65°
2026-04-26 17:38 50.40529 30.43899 569 ft 0 kts 65°
2026-04-26 17:42 50.40549 30.43890 575 ft 8 kts 313°
2026-04-26 17:42 50.40607 30.43870 568 ft 10 kts 26°
2026-04-26 17:43 50.40699 30.43938 569 ft 19 kts 22°
2026-04-26 17:43 50.40819 30.44020 570 ft 17 kts 24°
2026-04-26 17:43 50.40924 30.44095 571 ft 18 kts 22°
2026-04-26 17:43 50.41002 30.44216 575 ft 15 kts 86°
2026-04-26 17:44 50.41008 30.44421 574 ft 22 kts 87°
2026-04-26 17:44 50.41007 30.44648 576 ft 14 kts 120°
2026-04-26 17:44 50.40953 30.44747 580 ft 13 kts 132°
2026-04-26 17:44 50.40895 30.44849 578 ft 11 kts 130°
2026-04-26 17:45 50.40850 30.44931 579 ft 10 kts 131°
2026-04-26 17:45 50.40778 30.45059 580 ft 21 kts 132°
2026-04-26 17:45 50.40667 30.45253 582 ft 23 kts 130°
2026-04-26 17:45 50.40575 30.45420 583 ft 18 kts 131°
2026-04-26 17:46 50.40489 30.45579 584 ft 19 kts 120°
2026-04-26 17:46 50.40476 30.45757 586 ft 15 kts 94°
2026-04-26 17:46 50.40463 30.45968 588 ft 21 kts 96°
2026-04-26 17:46 50.40440 30.46164 590 ft 16 kts 127°
2026-04-26 17:47 50.40341 30.46195 590 ft 17 kts 178°
2026-04-26 17:47 50.40297 30.46197 590 ft 20 kts 178°
2026-04-26 17:47 50.40213 30.46000 589 ft 39 kts 265°
2026-04-26 17:47 50.40176 30.45383 744 ft 58 kts 259°
2026-04-26 17:48 50.40097 30.44726 946 ft 68 kts 264°
2026-04-26 17:48 50.40030 30.43980 1134 ft 73 kts 260°
2026-04-26 17:48 50.39723 30.43401 1378 ft 73 kts 219°
2026-04-26 17:48 50.39161 30.43333 1541 ft 93 kts 181°
2026-04-26 17:49 50.38507 30.43822 1734 ft 115 kts 162°
2026-04-26 17:49 50.37885 30.44731 1795 ft 128 kts 128°
2026-04-26 17:49 50.37618 30.46146 1858 ft 143 kts 94°
2026-04-26 17:49 50.37806 30.47708 1816 ft 148 kts 57°
2026-04-26 17:50 50.38478 30.48896 1811 ft 142 kts 28°
2026-04-26 17:50 50.39204 30.49824 1789 ft 130 kts 27°
2026-04-26 17:50 50.39877 30.50696 1802 ft 119 kts 26°
2026-04-26 17:50 50.40493 30.51503 1805 ft 114 kts 25°
2026-04-26 17:51 50.41087 30.52297 1810 ft 112 kts 24°
2026-04-26 17:51 50.41680 30.53041 1815 ft 103 kts 20°
2026-04-26 17:51 50.42352 30.53488 1801 ft 105 kts
2026-04-26 17:51 50.43034 30.53867 1792 ft 102 kts
2026-04-26 17:52 50.43699 30.54243 1791 ft 101 kts
2026-04-26 17:52 50.44365 30.54618 1793 ft 102 kts
2026-04-26 17:52 50.45045 30.54906 1797 ft 101 kts 352°
2026-04-26 17:52 50.45733 30.54944 1795 ft 97 kts 341°
2026-04-26 17:53 50.46394 30.54851 1793 ft 94 kts 339°
2026-04-26 17:53 50.47037 30.54747 1793 ft 93 kts 332°
2026-04-26 17:53 50.47647 30.54505 1791 ft 90 kts 332°
2026-04-26 17:54 50.48848 30.54070 1788 ft 88 kts 332°
2026-04-26 17:54 50.49459 30.53832 1804 ft 96 kts 332°
2026-04-26 17:54 50.50096 30.53457 1822 ft 99 kts 319°
2026-04-26 17:54 50.50482 30.53051 1812 ft 99 kts 312°
2026-04-26 17:55 50.51166 30.52094 1785 ft 98 kts 311°
2026-04-26 17:55 50.51519 30.51647 1781 ft 99 kts 314°
2026-04-26 17:55 50.52086 30.51038 1777 ft 99 kts 320°
2026-04-26 17:55 50.52697 30.50536 1772 ft 98 kts 325°
2026-04-26 17:56 50.53332 30.50143 1770 ft 98 kts 328°
2026-04-26 17:56 50.54613 30.49380 1755 ft 96 kts 327°
2026-04-26 17:57 50.55834 30.48654 1755 ft 92 kts 326°
2026-04-26 17:57 50.56432 30.48270 1753 ft 97 kts 324°
2026-04-26 17:57 50.57064 30.47838 1794 ft 101 kts 325°
2026-04-26 17:57 50.57736 30.47386 1787 ft 109 kts 326°
2026-04-26 17:58 50.59865 30.46051 1761 ft 109 kts 327°
2026-04-26 17:59 50.61253 30.45175 1766 ft 114 kts 325°
2026-04-26 17:59 50.62033 30.44623 1760 ft 130 kts 326°
2026-04-26 17:59 50.62896 30.44109 1763 ft 136 kts 335°
2026-04-26 17:59 50.63858 30.43866 1748 ft 146 kts 348°
2026-04-26 18:00 50.64884 30.44026 1754 ft 152 kts
2026-04-26 18:00 50.65953 30.44267 1763 ft 156 kts 356°
2026-04-26 18:00 50.67034 30.44323 1758 ft 155 kts 353°
2026-04-26 18:00 50.68117 30.44345 1754 ft 156 kts 351°
2026-04-26 18:01 50.69199 30.44308 1751 ft 155 kts 349°
2026-04-26 18:01 50.70271 30.44271 1751 ft 153 kts 350°
2026-04-26 18:01 50.71335 30.44265 1752 ft 153 kts 351°
2026-04-26 18:01 50.72399 30.44243 1749 ft 153 kts 349°
2026-04-26 18:02 50.73463 30.44214 1753 ft 154 kts 350°
2026-04-26 18:02 50.74173 30.44201 1755 ft 154 kts 351°
2026-04-26 18:02 50.75613 30.44213 1757 ft 155 kts 349°
2026-04-26 18:02 50.76690 30.44193 1740 ft 155 kts 349°
2026-04-26 18:03 50.77767 30.44164 1741 ft 155 kts 348°
2026-04-26 18:03 50.78843 30.44100 1742 ft 155 kts 349°
2026-04-26 18:03 50.79921 30.44112 1738 ft 156 kts 353°
2026-04-26 18:03 50.81008 30.44124 1747 ft 156 kts 346°
2026-04-26 18:04 50.82080 30.43983 1745 ft 153 kts 347°
2026-04-26 18:04 50.83140 30.43893 1743 ft 152 kts 349°
2026-04-26 18:04 50.84179 30.43860 1740 ft 151 kts 350°
2026-04-26 18:05 50.86289 30.43848 1739 ft 153 kts 351°
2026-04-26 18:05 50.87356 30.43840 1738 ft 154 kts 351°
2026-04-26 18:05 50.88434 30.43826 1739 ft 155 kts 351°
2026-04-26 18:05 50.89515 30.43809 1740 ft 154 kts 349°
2026-04-26 18:06 50.90577 30.43637 1740 ft 151 kts 343°
2026-04-26 18:06 50.91610 30.43378 1739 ft 150 kts 340°
2026-04-26 18:06 50.92615 30.43004 1738 ft 147 kts 338°
2026-04-26 18:06 50.93625 30.42711 1740 ft 149 kts 341°
2026-04-26 18:07 50.94652 30.42530 1740 ft 150 kts 347°
2026-04-26 18:07 50.95693 30.42345 1736 ft 150 kts 346°
2026-04-26 18:07 50.96738 30.42219 1741 ft 151 kts 341°
2026-04-26 18:07 50.97412 30.41997 1743 ft 150 kts 335°
2026-04-26 18:08 50.98702 30.41234 1741 ft 148 kts 334°
2026-04-26 18:08 50.99713 30.40920 1740 ft 150 kts 348°
2026-04-26 18:08 51.00753 30.40771 1736 ft 152 kts 344°
2026-04-26 18:08 51.01795 30.40461 1732 ft 152 kts 342°
2026-04-26 18:09 51.02850 30.40253 1739 ft 154 kts 346°
2026-04-26 18:09 51.03913 30.40041 1735 ft 154 kts 343°
2026-04-26 18:09 51.04967 30.39758 1735 ft 153 kts 341°
2026-04-26 18:09 51.06019 30.39467 1735 ft 153 kts 344°
2026-04-26 18:10 51.07085 30.39230 1739 ft 155 kts 343°
2026-04-26 18:10 51.08154 30.38936 1737 ft 156 kts 338°
2026-04-26 18:10 51.09171 30.38404 1740 ft 152 kts 333°
2026-04-26 18:10 51.10143 30.37755 1739 ft 150 kts 326°
2026-04-26 18:11 51.11010 30.36890 1732 ft 148 kts 316°
2026-04-26 18:11 51.11806 30.35870 1733 ft 146 kts 313°
2026-04-26 18:11 51.12552 30.34775 1735 ft 146 kts 309°
2026-04-26 18:11 51.13294 30.33675 1730 ft 146 kts 315°
2026-04-26 18:12 51.14134 30.32902 1915 ft 136 kts 332°
2026-04-26 18:12 51.15017 30.32336 2015 ft 135 kts 326°
2026-04-26 18:12 51.15810 30.31731 2295 ft 122 kts 326°
2026-04-26 18:12 51.16572 30.31121 2466 ft 119 kts 326°
2026-04-26 18:13 51.17291 30.30557 2737 ft 113 kts 324°
2026-04-26 18:13 51.18025 30.29960 2776 ft 124 kts 323°
2026-04-26 18:13 51.18807 30.29261 2762 ft 133 kts 322°
2026-04-26 18:13 51.19347 30.28764 2749 ft 137 kts 322°
2026-04-26 18:14 51.20470 30.27723 2755 ft 142 kts 322°
2026-04-26 18:14 51.21319 30.26975 2749 ft 142 kts 325°
2026-04-26 18:14 51.22206 30.26235 2751 ft 142 kts 324°
2026-04-26 18:14 51.23064 30.25504 2756 ft 141 kts 323°
2026-04-26 18:15 51.23903 30.24702 2757 ft 140 kts 321°
2026-04-26 18:15 51.24746 30.23915 2759 ft 140 kts 323°
2026-04-26 18:15 51.25616 30.23193 2763 ft 142 kts 326°
2026-04-26 18:15 51.26503 30.22473 2755 ft 143 kts 325°
2026-04-26 18:16 51.27382 30.21725 2754 ft 143 kts 323°
2026-04-26 18:16 51.29053 30.20030 2753 ft 141 kts 318°
2026-04-26 18:16 51.29850 30.19126 2750 ft 140 kts 317°
2026-04-26 18:17 51.30684 30.18326 2734 ft 141 kts 336°
2026-04-26 18:17 51.31697 30.18304 2764 ft 151 kts 350°
2026-04-26 18:17 51.32748 30.18255 2763 ft 150 kts 350°
2026-04-26 18:17 51.33797 30.18297 2757 ft 152 kts 352°
2026-04-26 18:18 51.34857 30.18356 2759 ft 154 kts 351°
2026-04-26 18:18 51.35936 30.18413 2760 ft 155 kts 352°
2026-04-26 18:18 51.37015 30.18534 2760 ft 156 kts 356°
2026-04-26 18:18 51.38106 30.18720 2755 ft 158 kts 356°
2026-04-26 18:19 51.39186 30.18796 2845 ft 151 kts 346°
2026-04-26 18:19 51.40241 30.18763 2753 ft 153 kts 353°
2026-04-26 18:19 51.41288 30.18702 2768 ft 150 kts 336°
2026-04-26 18:19 51.42179 30.17976 2772 ft 140 kts 314°
2026-04-26 18:20 51.42747 30.16771 2768 ft 133 kts 295°
2026-04-26 18:20 51.43075 30.15404 2762 ft 130 kts 287°
2026-04-26 18:20 51.43257 30.13995 2753 ft 129 kts 278°
2026-04-26 18:20 51.43277 30.13050 2752 ft 128 kts 273°
2026-04-26 18:21 51.43232 30.11158 2757 ft 126 kts 269°
2026-04-26 18:21 51.43140 30.09758 2762 ft 128 kts 268°
2026-04-26 18:21 51.42987 30.08339 2761 ft 130 kts 268°
2026-04-26 18:21 51.42815 30.06929 2772 ft 129 kts 259°
2026-04-26 18:22 51.42397 30.05626 2768 ft 134 kts 251°
2026-04-26 18:22 51.41855 30.04401 2771 ft 137 kts 241°
2026-04-26 18:22 51.41448 30.03042 2781 ft 136 kts 275°
2026-04-26 18:22 51.41552 30.01619 2781 ft 127 kts 283°
2026-04-26 18:23 51.41652 30.00224 2776 ft 125 kts 283°
2026-04-26 18:23 51.41680 29.98847 2777 ft 125 kts 264°
2026-04-26 18:23 51.41276 29.97558 2776 ft 134 kts 250°
2026-04-26 18:23 51.40832 29.96231 2779 ft 137 kts 253°
2026-04-26 18:24 51.40409 29.94838 2779 ft 140 kts 253°
2026-04-26 18:24 51.39980 29.93426 2784 ft 141 kts 254°
2026-04-26 18:24 51.39541 29.92011 2780 ft 142 kts 253°
2026-04-26 18:24 51.39092 29.90583 2780 ft 144 kts 254°
2026-04-26 18:25 51.38643 29.89151 2785 ft 144 kts 253°
2026-04-26 18:25 51.38187 29.87724 2782 ft 144 kts 254°
2026-04-26 18:25 51.37736 29.86284 2782 ft 145 kts 253°
2026-04-26 18:25 51.37282 29.84840 2779 ft 145 kts 253°
2026-04-26 18:26 51.36834 29.83393 2788 ft 145 kts 254°
2026-04-26 18:26 51.36382 29.81971 2780 ft 142 kts 247°
2026-04-26 18:26 51.35561 29.81085 2779 ft 153 kts 202°
2026-04-26 18:26 51.34466 29.81313 2786 ft 169 kts 166°
2026-04-26 18:27 51.33401 29.82188 2788 ft 178 kts 154°
2026-04-26 18:27 51.32283 29.83145 2790 ft 181 kts 156°
2026-04-26 18:27 51.31191 29.84098 2790 ft 182 kts 156°
2026-04-26 18:27 51.30072 29.85056 2791 ft 183 kts 156°
2026-04-26 18:28 51.28951 29.86028 2791 ft 183 kts 156°
2026-04-26 18:28 51.27832 29.87015 2791 ft 184 kts 155°
2026-04-26 18:28 51.26710 29.87998 2790 ft 184 kts 156°
2026-04-26 18:28 51.25589 29.88973 2801 ft 183 kts 156°
2026-04-26 18:29 51.24482 29.89971 2782 ft 182 kts 158°
2026-04-26 18:29 51.23333 29.90795 2789 ft 180 kts 168°
2026-04-26 18:29 51.22134 29.91267 2790 ft 176 kts 180°
2026-04-26 18:29 51.20929 29.91409 2789 ft 171 kts 189°
2026-04-26 18:30 51.19752 29.91316 2787 ft 168 kts 196°
2026-04-26 18:30 51.18603 29.91112 2785 ft 166 kts 198°
2026-04-26 18:30 51.17464 29.90875 2787 ft 165 kts 198°
2026-04-26 18:30 51.16324 29.90643 2786 ft 165 kts 198°
2026-04-26 18:31 51.15183 29.90456 2787 ft 165 kts 196°
2026-04-26 18:31 51.14033 29.90318 2791 ft 166 kts 194°
2026-04-26 18:31 51.12877 29.90231 2796 ft 167 kts 192°
2026-04-26 18:31 51.11715 29.90205 2798 ft 168 kts 191°
2026-04-26 18:32 51.10555 29.90208 2794 ft 168 kts 191°
2026-04-26 18:32 51.09386 29.90194 2794 ft 168 kts 191°
2026-04-26 18:32 51.08218 29.90153 2796 ft 167 kts 193°
2026-04-26 18:32 51.07061 29.90090 2791 ft 166 kts 192°
2026-04-26 18:33 51.05905 29.90089 2784 ft 167 kts 191°
2026-04-26 18:33 51.04738 29.90091 2786 ft 168 kts 190°
2026-04-26 18:33 51.03567 29.90116 2790 ft 169 kts 190°
2026-04-26 18:33 51.02395 29.90102 2793 ft 168 kts 192°
2026-04-26 18:34 51.01231 29.90036 2792 ft 167 kts 194°
2026-04-26 18:34 51.00072 29.89969 2792 ft 167 kts 193°
2026-04-26 18:34 50.98911 29.89907 2795 ft 168 kts 193°
2026-04-26 18:34 50.97738 29.89843 2795 ft 169 kts 193°
2026-04-26 18:35 50.96567 29.89779 2795 ft 168 kts 192°
2026-04-26 18:35 50.95401 29.89738 2793 ft 167 kts 192°
2026-04-26 18:35 50.94234 29.89706 2792 ft 168 kts 192°
2026-04-26 18:35 50.93064 29.89764 2793 ft 169 kts 182°
2026-04-26 18:36 50.91920 29.90284 2801 ft 174 kts 166°
2026-04-26 18:36 50.90821 29.91163 2802 ft 180 kts 156°
2026-04-26 18:36 50.89759 29.92242 2798 ft 183 kts 152°
2026-04-26 18:36 50.88715 29.93421 2797 ft 185 kts 149°
2026-04-26 18:37 50.87683 29.94611 2798 ft 186 kts 150°
2026-04-26 18:37 50.86617 29.95773 2800 ft 186 kts 151°
2026-04-26 18:37 50.85537 29.96902 2799 ft 186 kts 155°
2026-04-26 18:37 50.84433 29.97935 2797 ft 181 kts 156°
2026-04-26 18:38 50.83342 29.98880 2796 ft 178 kts 160°
2026-04-26 18:38 50.82237 29.99749 2797 ft 177 kts 162°
2026-04-26 18:38 50.81117 30.00554 2795 ft 176 kts 164°
2026-04-26 18:38 50.80018 30.01401 2798 ft 176 kts 160°
2026-04-26 18:39 50.78947 30.02352 2792 ft 176 kts 154°
2026-04-26 18:39 50.77888 30.03366 2794 ft 178 kts 159°
2026-04-26 18:39 50.76783 30.04230 2790 ft 177 kts 156°
2026-04-26 18:39 50.75695 30.05162 2794 ft 178 kts 165°
2026-04-26 18:40 50.74573 30.05960 2797 ft 176 kts 165°
2026-04-26 18:40 50.73823 30.06518 2797 ft 177 kts 163°
2026-04-26 18:40 50.72720 30.07405 2801 ft 178 kts 161°
2026-04-26 18:40 50.71637 30.08325 2798 ft 179 kts 160°
2026-04-26 18:41 50.70549 30.09288 2799 ft 180 kts 159°
2026-04-26 18:41 50.69460 30.10259 2798 ft 180 kts 159°
2026-04-26 18:41 50.68362 30.11202 2794 ft 180 kts 160°
2026-04-26 18:41 50.67255 30.12106 2794 ft 179 kts 162°
2026-04-26 18:42 50.66145 30.12986 2790 ft 178 kts 160°
2026-04-26 18:42 50.65078 30.13980 2793 ft 179 kts 159°
2026-04-26 18:42 50.63976 30.14891 2792 ft 178 kts 162°
2026-04-26 18:42 50.62874 30.15772 2800 ft 178 kts 161°
2026-04-26 18:43 50.61779 30.16675 2802 ft 178 kts 161°
2026-04-26 18:43 50.60682 30.17567 2803 ft 178 kts 161°
2026-04-26 18:43 50.59590 30.18483 2804 ft 178 kts 160°
2026-04-26 18:43 50.58503 30.19414 2815 ft 178 kts 160°
2026-04-26 18:44 50.57433 30.20350 2802 ft 175 kts 161°
2026-04-26 18:44 50.56359 30.21236 2801 ft 174 kts 162°
2026-04-26 18:44 50.55281 30.22096 2799 ft 173 kts 162°
2026-04-26 18:44 50.54224 30.23011 2798 ft 173 kts 154°
2026-04-26 18:45 50.53298 30.24250 2798 ft 177 kts 143°
2026-04-26 18:45 50.52431 30.25647 2799 ft 180 kts 140°
2026-04-26 18:45 50.51553 30.27057 2802 ft 181 kts 142°
2026-04-26 18:45 50.50646 30.28426 2802 ft 180 kts 142°
2026-04-26 18:46 50.49736 30.29791 2803 ft 181 kts 144°
2026-04-26 18:46 50.48792 30.31091 2800 ft 180 kts 145°
2026-04-26 18:46 50.47867 30.32426 2804 ft 180 kts 142°
2026-04-26 18:46 50.46947 30.33769 2805 ft 181 kts 144°
2026-04-26 18:47 50.46003 30.35073 2807 ft 180 kts 147°
2026-04-26 18:47 50.45309 30.36655 2802 ft 180 kts 107°
2026-04-26 18:47 50.45510 30.38556 2805 ft 180 kts 57°
2026-04-26 18:47 50.46393 30.39841 2802 ft 170 kts 17°
2026-04-26 18:48 50.47496 30.40011 2802 ft 155 kts 334°
2026-04-26 18:48 50.48223 30.38970 2798 ft 140 kts 284°
2026-04-26 18:48 50.48042 30.37563 2795 ft 138 kts 235°
2026-04-26 18:48 50.47168 30.36982 2794 ft 149 kts 190°
2026-04-26 18:49 50.46194 30.37658 2803 ft 165 kts 144°
2026-04-26 18:49 50.45704 30.39322 2806 ft 176 kts 99°
2026-04-26 18:49 50.45925 30.41197 2798 ft 178 kts 57°
2026-04-26 18:49 50.46813 30.42441 2758 ft 171 kts 15°
2026-04-26 18:50 50.47974 30.42530 2522 ft 163 kts 332°
2026-04-26 18:50 50.48742 30.41418 2160 ft 149 kts 284°
2026-04-26 18:50 50.48550 30.40048 2211 ft 126 kts 232°
2026-04-26 18:50 50.47760 30.39630 2273 ft 125 kts 185°
2026-04-26 18:51 50.46905 30.40018 2296 ft 130 kts 172°
2026-04-26 18:51 50.46046 30.40517 2310 ft 134 kts 171°
2026-04-26 18:51 50.45125 30.40750 2325 ft 133 kts 189°
2026-04-26 18:51 50.44193 30.40825 2330 ft 135 kts 189°
2026-04-26 18:52 50.43244 30.40899 2338 ft 138 kts 189°
2026-04-26 18:52 50.42279 30.40968 2329 ft 139 kts 189°
2026-04-26 18:52 50.41343 30.41297 2315 ft 144 kts 175°
2026-04-26 18:52 50.40323 30.41762 2064 ft 159 kts 175°
2026-04-26 18:53 50.39260 30.42249 1859 ft 160 kts 174°
2026-04-26 18:53 50.38205 30.42754 1679 ft 152 kts 170°
2026-04-26 18:53 50.37465 30.43788 1724 ft 144 kts 126°
2026-04-26 18:53 50.37266 30.45312 1727 ft 145 kts 92°
2026-04-26 18:54 50.37314 30.46882 1727 ft 145 kts 83°
2026-04-26 18:54 50.37397 30.48459 1725 ft 144 kts 82°
2026-04-26 18:54 50.37461 30.50016 1726 ft 143 kts 81°
2026-04-26 18:54 50.37564 30.51581 1742 ft 144 kts 81°
2026-04-26 18:55 50.37666 30.53109 1736 ft 142 kts 79°
2026-04-26 18:55 50.37765 30.54653 1734 ft 142 kts 81°
2026-04-26 18:55 50.37870 30.56192 1734 ft 142 kts 80°
2026-04-26 18:55 50.37975 30.57729 1742 ft 143 kts 81°
2026-04-26 18:56 50.38074 30.59272 1737 ft 142 kts 82°
2026-04-26 18:56 50.38192 30.60802 1751 ft 141 kts 71°
2026-04-26 18:56 50.38222 30.62292 1745 ft 139 kts 108°
2026-04-26 18:56 50.37690 30.63516 1747 ft 136 kts 149°
2026-04-26 18:57 50.36839 30.63934 1753 ft 124 kts 192°
2026-04-26 18:57 50.36308 30.63705 1745 ft 116 kts 221°
2026-04-26 18:57 50.35828 30.62399 1745 ft 102 kts 274°
2026-04-26 18:57 50.36105 30.61431 1744 ft 101 kts 314°
2026-04-26 18:58 50.36777 30.61086 1737 ft 108 kts 347°
2026-04-26 18:58 50.37542 30.61130 1729 ft 113 kts 351°
2026-04-26 18:58 50.38337 30.61217 1739 ft 113 kts 351°
2026-04-26 18:58 50.39115 30.61323 1737 ft 111 kts 352°
2026-04-26 18:59 50.39880 30.61439 1728 ft 113 kts 352°
2026-04-26 18:59 50.40660 30.61368 1738 ft 112 kts 326°
2026-04-26 18:59 50.41176 30.60564 1744 ft 103 kts 286°
2026-04-26 18:59 50.41201 30.59489 1737 ft 98 kts 262°
2026-04-26 19:00 50.41033 30.58457 1725 ft 97 kts 257°
2026-04-26 19:00 50.40832 30.57454 1732 ft 96 kts 257°
2026-04-26 19:00 50.40645 30.56458 1731 ft 93 kts 262°
2026-04-26 19:00 50.40567 30.55467 1734 ft 90 kts 269°
2026-04-26 19:01 50.40569 30.54480 1740 ft 91 kts 272°
2026-04-26 19:01 50.40574 30.53457 1671 ft 97 kts 269°
2026-04-26 19:01 50.40543 30.52422 1573 ft 89 kts 267°
2026-04-26 19:01 50.40456 30.51451 1400 ft 89 kts 265°
2026-04-26 19:02 50.40391 30.50472 1172 ft 90 kts 271°
2026-04-26 19:02 50.40371 30.49512 1036 ft 89 kts 269°
2026-04-26 19:02 50.40321 30.48520 855 ft 92 kts 270°
2026-04-26 19:02 50.40292 30.47884 808 ft 86 kts 269°
2026-04-26 19:03 50.40238 30.46570 639 ft 91 kts 267°
2026-04-26 19:03 50.40199 30.45689 591 ft 65 kts 269°
2026-04-26 19:03 50.40180 30.45160 578 ft 35 kts 267°
2026-04-26 19:03 50.40166 30.44852 578 ft 27 kts 265°
2026-04-26 19:04 50.40153 30.44539 575 ft 30 kts 265°
2026-04-26 19:04 50.40139 30.44219 574 ft 27 kts 267°
2026-04-26 19:04 50.40125 30.43928 568 ft 29 kts 265°
2026-04-26 19:04 50.40113 30.43625 563 ft 21 kts 265°
2026-04-26 19:05 50.40249 30.43576 565 ft 18 kts 26°
2026-04-26 19:05 50.40363 30.43658 573 ft 14 kts 26°
2026-04-26 19:05 50.40442 30.43758 567 ft 18 kts 22°
2026-04-26 19:06 50.40575 30.43850 568 ft 23 kts 22°
2026-04-26 19:06 50.40712 30.43949 569 ft 20 kts 24°
2026-04-26 19:06 50.40843 30.44038 570 ft 17 kts 24°
2026-04-26 19:06 50.40926 30.44098 571 ft 14 kts 23°
2026-04-26 19:07 50.41024 30.44146 573 ft 13 kts 317°
2026-04-26 19:07 50.41070 30.44087 571 ft 6 kts 29°
2026-04-26 19:07 50.41088 30.44103 575 ft 0 kts 28°